#timestamp,LO_Frequency,Hit,StdDev 
1594922415.3,286047000.5,N
1594922435.1,286047002.4,N
1594922455.9,286046999.8,N
1594922475.7,286047000.0,N
1594922495.6,286047000.0,N
1594922515.4,286046999.7,N
1594922535.2,286047002.8,Y
1594922555.1,286047002.4,P
1594922556.0,286047002.4,N
1594922575.8,286047002.1,N
1594922595.7,286047002.5,N
1594922615.5,286047004.4,Y
1594922635.3,286047002.1,P
1594922655.2,286047000.4,P
1594922675.0,286047001.1,N
1594922675.9,286047001.1,N
1594922695.8,286046998.2,N
1594922715.6,286046998.6,N
1594922735.4,286047001.2,N
1594922755.3,286046998.8,N
1594922775.1,286046998.5,N
1594922795.8,286046998.7,N
1594922815.7,286046999.4,N
1594922835.5,286046998.9,N
1594922855.4,286047001.1,N
1594922875.2,286047000.6,N
1594922895.0,286047002.2,N
1594922895.9,286047002.2,N
1594922915.8,286047004.7,Y
1594922935.6,286047003.5,P
1594922955.5,286047003.4,N
1594922975.3,286047002.2,N
1594922995.1,286047001.8,N
1594923015.9,286047001.8,N
1594923035.7,286047003.6,Y
1594923055.6,286047002.0,P
1594923075.4,286047001.2,P
1594923095.2,286047000.5,N
1594923115.1,286047000.9,N
1594923116.0,286047000.9,N
1594923135.8,286046999.7,N
1594923155.6,286046999.7,N
1594923175.5,286047002.2,N
1594923195.3,286047000.7,N
1594923215.2,286047001.1,N
1594923235.0,286047001.0,N
1594923235.9,286047001.0,N
1594923255.8,286047001.0,N
1594923275.6,286047000.3,N
1594923295.4,286047000.8,N
1594923315.3,286046999.3,N
1594923335.1,286046998.6,N
1594923355.8,286046998.3,N
1594923375.7,286047001.2,N
1594923395.5,286047000.4,N
1594923415.4,286046998.2,N
1594923435.2,286046998.2,N
1594923455.0,286046996.5,N
1594923455.9,286046996.5,N
1594923475.8,286046999.1,N
1594923495.6,286046995.0,Y
1594923515.5,286046995.2,P
1594923535.3,286046997.6,N
1594923555.1,286046995.5,N
1594923575.9,286046993.5,Y
1594923595.7,286046996.6,P
1594923615.5,286047001.2,P
1594923635.4,286047000.0,N
1594923655.2,286046999.7,N
1594923675.1,286047002.8,N
1594923676.0,286047002.8,N
1594923695.8,286047001.9,N
1594923715.6,286047002.8,N
1594923735.5,286046999.8,N
1594923755.3,286047001.6,N
1594923775.2,286047002.4,N
1594923795.9,286047002.8,N
1594923815.7,286046998.2,N
1594923835.6,286047000.5,N
1594923855.4,286046999.2,N
1594923875.2,286046998.3,N
1594923895.1,286046998.3,N
1594923896.0,286046998.3,N
1594923915.8,286046998.3,N
1594923935.7,286046999.9,N
1594923955.5,286046999.3,N
1594923975.3,286046998.2,N
1594923995.2,286046998.6,N
1594924015.0,286046998.8,N
1594924015.9,286046998.8,N
1594924035.8,286046998.6,N
1594924055.6,286046998.3,N
1594924075.4,286047000.1,N
1594924095.3,286047001.8,N
1594924115.1,286047003.9,N
1594924135.8,286047004.4,N
1594924155.7,286047002.7,N
1594924175.5,286047000.8,N
1594924195.4,286046998.5,N
1594924215.2,286046998.2,N
1594924235.0,286046998.3,N
1594924235.9,286046998.3,N
1594924255.8,286046998.8,N
1594924275.6,286046998.4,N
1594924295.5,286046998.7,N
1594924315.3,286046996.5,N
1594924335.1,286046997.3,N
1594924355.9,286046997.0,N
1594924375.7,286046999.1,N
1594924395.5,286046997.0,N
1594924415.4,286046999.2,N
1594924435.2,286046999.4,N
1594924455.1,286046998.7,N
1594924456.0,286046998.7,N
1594924475.8,286046998.1,N
1594924495.6,286046998.1,N
1594924515.5,286047001.1,N
1594924535.3,286046998.2,N
1594924555.1,286046998.8,N
1594924575.9,286046999.4,N
1594924595.7,286046999.5,N
1594924615.6,286046999.6,N
1594924635.4,286046996.6,N
1594924655.3,286046998.2,N
1594924675.1,286046998.4,N
1594924676.0,286046998.4,N
1594924695.8,286047001.0,N
1594924715.7,286046998.1,N
1594924735.5,286046998.6,N
1594924755.3,286046998.8,N
1594924775.2,286046999.0,N
1594924795.0,286046999.0,N
1594924795.9,286046999.0,N
1594924815.8,286046998.2,N
1594924835.6,286047002.0,N
1594924855.4,286047000.6,N
1594924875.3,286047000.5,N
1594924895.1,286047002.7,N
1594924915.9,286047002.6,N
1594924935.7,286046998.1,N
1594924955.5,286047001.1,N
1594924975.4,286047001.4,N
1594924995.2,286047002.4,N
1594925015.0,286047002.4,N
1594925015.9,286047002.4,N
1594925035.8,286047000.5,N
1594925055.6,286047000.0,N
1594925075.5,286047001.1,N
1594925095.3,286047000.7,N
1594925115.1,286047001.2,N
1594925135.9,286047001.1,N
1594925155.7,286046998.7,N
1594925175.6,286046998.7,N
1594925195.4,286046998.7,N
1594925215.2,286046999.4,N
1594925235.1,286047001.2,N
1594925236.0,286047001.2,N
1594925255.8,286046998.8,N
1594925275.7,286046998.4,N
1594925295.5,286047000.8,N
1594925315.3,286046998.1,N
1594925335.2,286046998.2,N
1594925355.0,286047000.2,N
1594925355.9,286047000.2,N
1594925375.7,286046999.0,N
1594925395.6,286046999.1,N
1594925415.4,286047000.9,N
1594925435.3,286046999.4,N
1594925455.1,286046998.5,N
1594925475.8,286046998.5,N
1594925495.7,286046999.2,N
1594925515.5,286046996.9,N
1594925535.4,286046996.7,N
1594925555.2,286046998.3,N
1594925575.0,286046998.7,N
1594925575.9,286046998.7,N
1594925595.8,286046998.5,N
1594925615.6,286046999.0,N
1594925635.5,286046998.7,N
1594925655.3,286046998.1,N
1594925675.1,286046998.6,N
1594925695.9,286046998.4,N
1594925715.7,286046998.4,N
1594925735.5,286046998.4,N
1594925755.4,286046998.7,N
1594925775.2,286047001.1,N
1594925795.1,286046998.5,N
1594925796.0,286046998.5,N
1594925815.8,286046999.2,N
1594925835.6,286046999.2,N
1594925855.5,286046999.5,N
1594925875.3,286046999.3,N
1594925895.2,286046998.9,N
1594925915.9,286046998.7,N
1594925935.7,286046998.9,N
1594925955.6,286046998.5,N
1594925975.4,286047001.2,N
1594925995.3,286047000.6,N
